This demonstration page uses our WeatherBlox Daily Observations layout. Learn more.

Left ArrowRight Arrow

38.20091, -84.87328

Hourly Observations for May 28, 2020

Temp ( °F °C ) Dew Point ( °F °C ) Humidity (%) Winds ( mph kmh ) Pressure ( in mb ) Visibility ( mi km ) Precip ( " mm )
12:53 am 00:53 Cloudy 69 20.6 66 18.9 90 90 Calm 29.93 1013 10 16 0.00 0.00
1:53 am 01:53 Cloudy 69 20.6 66 18.9 90 90 Calm 29.92 1013 10 16 0.00 0.00
2:53 am 02:53 Cloudy 70 21.1 66 18.9 87 87 E 5 7 29.91 1013 10 16 0.00 0.00
3:53 am 03:53 Cloudy 70 21.1 67 19.4 90 90 Calm 29.89 1012 10 16 0.00 0.00
4:53 am 04:53 Cloudy 70 21.1 66 18.9 87 87 Calm 29.90 1012 10 16 0.00 0.00
5:53 am 05:53 Cloudy 69 20.6 66 18.9 90 90 S 5 7 29.91 1013 10 16 0.00 0.00
6:05 am 06:05 Cloudy 70 21.1 66 18.9 87 87 S 5 7 29.91 1013 10 16 0.00 0.00
6:10 am 06:10 Cloudy 70 21.1 66 18.9 87 87 S 7 11 29.91 1013 10 16 0.00 0.00
6:29 am 06:29 Cloudy 70 21.1 66 18.9 87 87 SSW 12 19 29.93 1013 10 16 0.00 0.00
6:53 am 06:53 Mostly Cloudy 67 19.4 64 17.8 91 91 WSW 6 9 29.93 1014 10 16 0.00 0.00
6:58 am 06:58 Mostly Cloudy 67 19.4 64 17.8 91 91 WSW 6 9 29.93 1014 10 16 0.00 0.00
7:53 am 07:53 Mostly Sunny 68 20 63 17.2 84 84 SW 8 13 29.95 1014 10 16 0.00 0.00
8:10 am 08:10 Partly Cloudy 68 20 63 17.2 84 84 SW 10 17 29.95 1014 10 16 0.00 0.00
8:53 am 08:53 Sunny 70 21.1 63 17.2 79 79 SSW 8 13 29.96 1015 10 16 0.00 0.00
9:46 am 09:46 Mostly Cloudy 72 22.2 64 17.8 76 76 SSW 7 11 29.96 1015 10 16 0.00 0.00
9:53 am 09:53 Mostly Cloudy 73 22.8 64 17.8 74 74 SW 9 15 29.97 1015 10 16 0.00 0.00
10:53 am 10:53 Mostly Cloudy 74 23.3 64 17.8 71 71 WSW 7 11 29.97 1015 10 16 0.00 0.00
11:25 am 11:25 Partly Cloudy 74 23.3 64 17.8 71 71 SW 8 13 29.97 1015 10 16 0.00 0.00
11:51 am 11:51 Mostly Cloudy 75 24 63 17 65 65 SW 12 19 29.98 1015 10 16 0.00 0.00
11:53 am 11:53 Mostly Cloudy 75 23.9 63 17.2 66 66 SW 13 20 29.98 1015 10 16 0.00 0.00
12:00 pm 12:00 Partly Cloudy 76 24.4 62 16.7 62 62 SW 10 17 29.98 1015 10 16 0.00 0.00
12:53 pm 12:53 Partly Cloudy 78 25.6 63 17.2 60 60 WSW 10 17 29.97 1015 10 16 0.00 0.00
1:53 pm 13:53 Partly Cloudy 80 26.7 62 16.7 54 54 S 7 11 29.96 1015 10 16 0.00 0.00
2:53 pm 14:53 Sunny 81 27.2 62 16.7 53 53 SSW 13 20 29.93 1014 10 16 0.00 0.00
3:53 pm 15:53 Partly Cloudy 83 28.3 63 17.2 51 51 S 8 13 29.90 1013 10 16 0.00 0.00
4:53 pm 16:53 Partly Cloudy 82 27.8 63 17.2 53 53 S 10 17 29.88 1012 10 16 0.00 0.00
5:53 pm 17:53 Cloudy 79 26.1 63 17.2 58 58 S 9 15 29.88 1012 10 16 0.00 0.00
6:53 pm 18:53 Cloudy 78 25.6 64 17.8 62 62 SSE 10 17 29.88 1012 10 16 0.00 0.00
7:53 pm 19:53 Partly Cloudy 77 25 62 16.7 60 60 S 10 17 29.89 1012 10 16 0.00 0.00
8:53 pm 20:53 Cloudy 76 24.4 63 17.2 64 64 S 7 11 29.91 1013 10 16 0.00 0.00
9:53 pm 21:53 Mostly Clear 73 22.8 63 17.2 71 71 S 6 9 29.91 1013 10 16 0.00 0.00
10:53 pm 22:53 Clear 72 22.2 63 17.2 73 73 S 5 7 29.92 1013 10 16 0.00 0.00
11:53 pm 23:53 Clear 71 21.7 64 17.8 79 79 S 6 9 29.93 1014 10 16 0.00 0.00

Powered by AerisWeather